Regional Weather Roundup
Issued by NWS Cleveland, OH

Home | Current Version | Previous Version | Graphics & Text | Print | Product List | Glossary On
Versions: 1 2 3 4 5 6 7 8 9 10 11 12 13 14 15 16 17 18 19 20 21 22 23 24 25 26 27 28 29 30 31 32 33 34 35 36 37 38 39 40 41 42 43 44 45 46 47 48 49 50
000
ASUS41 KCLE 300810
RWRCLE
OHIO REGIONAL WEATHER ROUNDUP
NATIONAL WEATHER SERVICE WILMINGTON, OH
400 AM EDT THU OCT 30 2014

NOTE: "FAIR" INDICATES FEW OR NO CLOUDS BELOW 12,000 FEET WITH NO
SIGNIFICANT WEATHER AND/OR OBSTRUCTIONS TO VISIBILITY.

OHZ001>008-015>018-024>027-034-035-043-044-300900-
   NORTHWEST OHIO

CITY           SKY/WX    TMP DP  RH WIND       PRES   REMARKS
DEFIANCE       MOCLDY    38  35  89 CALM      30.13R
FINDLAY        CLOUDY    43  37  79 W6        30.10F
TOLEDO EXPRESS CLEAR     39  36  89 W5        30.11S
TOLEDO METCALF PTCLDY    40  35  83 W6        30.11S
LIMA           CLOUDY    43  36  76 NW6       30.11F
$$

OHZ009>014-019>023-028>033-038-089-300900-
   NORTHEAST OHIO

CITY           SKY/WX    TMP DP  RH WIND       PRES   REMARKS
CLE-HOPKINS    CLOUDY    42  40  92 W6        30.10R
CLE-LAKEFRONT  PTCLDY   N/A N/A N/A W10       30.06S
CUY CO. ARPT   NOT AVBL
LORAIN-ELYRIA  CLOUDY    41  38  89 W7        30.09S
ASHTABULA      CLOUDY    43  41  93 CALM      30.05S
AKRON-CANTON   CLOUDY    43  38  82 NW6       30.07S
WOOSTER        PTCLDY    39  35  86 NW7       30.09R
MANSFIELD      CLEAR     38  37  97 W6        30.09R
YOUNGSTOWN     CLOUDY    42  39  89 W5        30.05S
$$

OHZ042-051>053-060>062-070>072-077>081-300900-
  SOUTHWEST OHIO

CITY           SKY/WX    TMP DP  RH WIND       PRES   REMARKS
CINC-COVINGTON CLOUDY    45  34  65 N3        30.13S
CINC-LUNKEN    MOCLDY    45  34  65 N5        30.15S
HAMILTON       CLOUDY    44  37  76 CALM      30.15S
DAYTON         CLOUDY    43  35  73 NW3       30.13S
WRIGHT-PAT AFB CLOUDY    44  35  71 NW3       30.12F
DAYTON GENERAL CLOUDY    44  35  70 N5        30.12S
WILMINGTON     CLOUDY    42  34  73 NW6       30.12S
$$

OHZ036-037-039>041-045>050-054>059-063>069-073>076-082>088-300900-
  CENTRAL AND SOUTHEAST OHIO

CITY           SKY/WX    TMP DP  RH WIND       PRES   REMARKS
COLUMBUS       CLOUDY    44  35  70 NW8       30.11R
OSU AIRPORT    CLOUDY    44  35  70 NW3       30.11S
BOLTON FIELD   CLOUDY    43  37  80 MISG      30.12R
RICKENBACK AFB CLOUDY    44  36  73 NW6       30.11S
NEWARK         CLEAR     37  32  82 CALM      30.10S
MARION         CLOUDY    42  36  79 NW5       30.11R
LANCASTER      CLOUDY    44  35  70 NW6       30.11S
ZANESVILLE     CLEAR     33  30  88 CALM      30.10R
NEW PHILLY     CLEAR     38  35  89 CALM      30.09
$$



USA.gov is the U.S. government's official web portal to all federal, state and local government web resources and services.